Showing default

ORBCOMM FM 112, 41184

Orbit data source: Space-Track

ORBCOMM FM 112, 41184 is a payload satellite owned by Orbcomm (US) in LEO that was launched on Tue, 22 Dec 2015 UTC via an FALCON 9 launch vehicle from the Air Force Eastern Test Range (AFETR). Payload-class satellites include a variety of spacecraft equipped with specific instruments for various scientific and technological missions. These include communications satellites like Starlink; space stations such as the ISS; scientific satellites like the Hubble; Earth observation satellites from companies like Planet Labs, Umbra, and HawkEye 360; GPS; miniature CubeSats for education and research; and military/defense satellites.

Loading next visibility...
Identifier
41184, 2015-081F
Orbit
LEO
Country
Flag of USUS / ORB
Related business
Manufacturer
SNC Louisville
Mission
Operational Commercial Communications
Bus & Motor
SN-100A, Unknown motor
Mass
172 kg wet, 158 kg dry
Launch date (UTC)
2015-12-22 (10 years ago)
Launch vehicle
FALCON 9
Launch site
Air Force Eastern Test Range (AFETR)
Object type
Payload
Rocket body
Debris
Shape & HBR
Box + 1 Pan + 1 Ant, 10.3 m
Radar Cross Section
2.222 m², Medium (>0.1 m² and < 1m²)

Expand to show TLE details & history
Last TLE update: 9 hours ago

TLE from 9 hours ago
0 ORBCOMM FM 112
1 41184U 15081F   25309.09792075  .00001018  00000-0  25327-3 0  9993
2 41184  46.9989 249.5638 0002139 279.6344  80.4299 14.58533744526236
Epoch: 2025-11-05T02:21Z
TLE epoch observation values (Epoch: 2025-11-05T02:21:00.352Z)
Latitude
-0.0001°
Longitude
169.73677°
Altitude
697.876 km
Speed
7.509 km/s
True Right ascension
16h 38m 15s
True Declination
0° 00' 00"
Sunlit
Object was in daylight at epoch
Visualization orbit readout
Latitude
Unknown
Longitude
Unknown
Altitude
Unknown
Speed
Unknown
Apparent Right ascension
Unknown
Apparent Declination
Unknown
Sunlit
N/A
Visualization observer readout
Local Sidereal Time
07:30:58
Azimuth
Unknown
Elevation
Unknown
Doppler factor
Unknown
Orbital elements
Apogee altitude
700.661 km
Perigee altitude
697.634 km
Semi-major axis
7,077.284 km
Eccentricity
0.00021
Inclination
46.9989°
RAAN
249.5638°
Arg. of periapsis
279.6344°
True anomaly
80.45407°
Mean anomaly
80.4299°
Eccentric anomaly
80.44199°
Mean motion
3.64538 °/min
Orbital period
98.76 mins
BSTAR
0.00025327
Loading maneuver chart data...
Computing Atmospheric mass density...
Loading historical data...
Loading historical data...
Loading historical data...
Loading historical data...
Loading historical data...
Loading historical data...
Loading historical data...

Documentation

Showing up to 5 results
|